Location: Maiden
(35.5760°N, 81.2120°W)
Time: 09:02:52
(UTC-05:00)

ISS - Visible Passes

Search period start: 21 November 2017 00:00
Search period end: 01 December 2017 00:00
Orbit: 402 x 407 km, 51.6° (Epoch: 21 November)

Date Brightness Start Highest point End Pass type
(mag) Time Alt. Az. Time Alt. Az. Time Alt. Az.
24 Nov -2.2 18:40:42 10° S 18:42:43 22° SSE 18:42:43 22° SSE visible
25 Nov -1.5 17:50:03 10° SSE 17:51:15 12° SE 17:52:28 10° ESE visible
25 Nov -1.5 19:24:10 10° WSW 19:25:39 24° WSW 19:25:39 24° WSW visible
26 Nov -3.9 18:31:48 10° SW 18:35:02 70° SE 18:35:49 47° ENE visible
27 Nov -2.7 17:39:52 10° SSW 17:42:48 31° SE 17:45:44 10° ENE visible
27 Nov -1.5 19:16:35 10° W 19:18:33 21° NW 19:18:33 21° NW visible
28 Nov -2.9 18:23:40 10° WSW 18:26:48 41° NW 18:28:32 22° NNE visible
29 Nov -1.1 19:09:43 10° NW 19:11:05 13° NNW 19:11:05 13° NNW visible
30 Nov -1.7 18:16:11 10° W 18:18:40 20° NNW 18:20:54 11° NNE visible
